Address 0xe6ac186748109fe296ceb10a7b960fac83d968be 1

Overview

Balance:
0.94218926961012192 BNB
My Name Tag:
Not Available

Txn Hash Method
Block
From
To
Value [Txn Fee]
0xb65492df879e046f9c9b47a977a6a72a69151e473325d2816a76e7aaf2ef38c4Safe Transfer Fr...126418452021-09-24 9:58:441 day 18 hrs ago0xe6ac186748109fe296ceb10a7b960fac83d968beOUT 0x8aa0ff1154541fba8765ab308821e26a2d48d9550 BNB0.00235325
0x2c8bbc1cb32bdf5c0ac97119965068aa6813bdafc429f87b262ce4744e52b4d90xbe09a187126413312021-09-24 9:33:021 day 18 hrs ago0xe6ac186748109fe296ceb10a7b960fac83d968beOUT 0xd5448a7e59427b206f76ab6772c15897f97f50cd0 BNB0.00083281
0xbe271688ac3557dcfe8a745510a6900569794f5556c187962820bc78265113e5Claim126390162021-09-24 7:37:121 day 20 hrs ago0xe6ac186748109fe296ceb10a7b960fac83d968beOUT 0xf9104b8323c78eefca7a9b45e0c6a25a9e4eaecb0 BNB0.00223049
0x89c652db3da0c02728c2c23779f18947c8ac22bff3da2ed42e42ad0cab32c3f0Safe Transfer Fr...125811162021-09-22 7:20:323 days 20 hrs ago0xe6ac186748109fe296ceb10a7b960fac83d968beOUT 0x50a1617b3ec5c46adfcb720701e9a48a1764f5d90 BNB0.0025018
0x1f95e44ca1e1a14c8a3b00523f08a84ce4a77fc1007f5b65d2784b84efff87f3Unstake125811032021-09-22 7:19:533 days 20 hrs ago0xe6ac186748109fe296ceb10a7b960fac83d968beOUT 0x01914a358ad9c6af9c2331e3b3737e7cbc4faec00 BNB0.00124816
0x307b01ff43cb4106556fd4ac995898651fb4d37e52324794626e34355111f1afSafe Transfer Fr...125809672021-09-22 7:13:053 days 20 hrs ago0xe6ac186748109fe296ceb10a7b960fac83d968beOUT 0x50a1617b3ec5c46adfcb720701e9a48a1764f5d90 BNB0.0025018
0x5118387d064241f58ebfb62f26a54ddcd8c1ab4cf8e7a2ad01d4412dfa6b9ff3Store125759862021-09-22 3:04:024 days 58 mins ago0xe6ac186748109fe296ceb10a7b960fac83d968beOUT 0x4affba2b7f57135eea1408809ca6ec165f2937b80 BNB0.00712486
0xfb4197da81256ddd9fe58b2031ba77db2eb76a0ae993a01c1c44d7dcc84edbcdStore125759702021-09-22 3:03:144 days 59 mins ago0xe6ac186748109fe296ceb10a7b960fac83d968beOUT 0x4affba2b7f57135eea1408809ca6ec165f2937b80 BNB0.0067859
0xe1bfd11ac03103e4acc57dcae0db2cc09a88f753d9d000b86acaaddf582ed8daStore125759542021-09-22 3:02:264 days 1 hr ago0xe6ac186748109fe296ceb10a7b960fac83d968beOUT 0x4affba2b7f57135eea1408809ca6ec165f2937b80 BNB0.00836423
0xd2141e03e434936264375e3406a7283ac278c0776be29bc383bf17d031259e37Unstake125759332021-09-22 3:01:234 days 1 hr ago0xe6ac186748109fe296ceb10a7b960fac83d968beOUT 0x01914a358ad9c6af9c2331e3b3737e7cbc4faec00 BNB0.00139816
0x85327eca9327d8a8f2fde6e90177242cc68fdb3f02b34c0807f0c7d99b5026d6Safe Transfer Fr...125759012021-09-22 2:59:474 days 1 hr ago0xe6ac186748109fe296ceb10a7b960fac83d968beOUT 0x50a1617b3ec5c46adfcb720701e9a48a1764f5d90 BNB0.0026938
0xa40b81be98f5dddf374d98e3178aa56d8555ecba86919fcd5d1168a219de00fe0xe0fef1e0125758832021-09-22 2:58:534 days 1 hr ago0xe6ac186748109fe296ceb10a7b960fac83d968beOUT 0xd5448a7e59427b206f76ab6772c15897f97f50cd0 BNB0.00485093
0x267f967a5485c25a001766e7ae3591e2a349e2b1e47614295552a6bd0d912eb2Approve125758762021-09-22 2:58:324 days 1 hr ago0xe6ac186748109fe296ceb10a7b960fac83d968beOUT 0x49a9a0646033d578776bc7fa336c71d8506bfe160 BNB0.00044548
0x873b3180acb0bbcfded6224730dd4043f4d92f230494c8df5cde3c93f33db289Safe Transfer Fr...125754142021-09-22 2:35:264 days 1 hr ago0xe6ac186748109fe296ceb10a7b960fac83d968beOUT 0x8aa0ff1154541fba8765ab308821e26a2d48d9550 BNB0.00247935
0x7cb5bd0ea8da742669506825e7b64442614d3f9ceef10c5024aea0adc07eda5bUpgrade123893332021-09-15 14:00:5810 days 14 hrs ago0xe6ac186748109fe296ceb10a7b960fac83d968beOUT 0x24309c4e92979227273fc602a7dc78954816255c0 BNB0.00251601
0xd73c9c27622ee5b752d9f695f1d7ae18188fd00f357472fff2339fd7ac7cf6b4Upgrade123893262021-09-15 14:00:3710 days 14 hrs ago0xe6ac186748109fe296ceb10a7b960fac83d968beOUT 0x24309c4e92979227273fc602a7dc78954816255c0 BNB0.00247401
0xaf4970e8fa9a22013162576816700a03e2645e31815f1b3bf7483a645aedd5290x7ffd8c62123892272021-09-15 13:55:4010 days 14 hrs ago0xe6ac186748109fe296ceb10a7b960fac83d968beOUT 0x7482e1efb0913209a1f144eb950c5981074c03fd0.01 BNB0.0035571
0x8068bd6f102e882b72f001169ae789f95abf815ccef37260f57028b14c3226540x7ffd8c62123891882021-09-15 13:53:4310 days 14 hrs ago0xe6ac186748109fe296ceb10a7b960fac83d968beOUT 0x7482e1efb0913209a1f144eb950c5981074c03fd0.01 BNB0.00348426
0xfd7da88669d0b58967aa8918f267fab59f23257c0cd7673f02141dad0846c7080x7ffd8c62123890992021-09-15 13:49:1610 days 14 hrs ago0xe6ac186748109fe296ceb10a7b960fac83d968beOUT 0x7482e1efb0913209a1f144eb950c5981074c03fd0.01 BNB0.00377562
0x3226b8141adfcd793c8f3c52144fa3b3d65d76642be985766de1d99841ea57980x7ffd8c62123890902021-09-15 13:48:4910 days 14 hrs ago0xe6ac186748109fe296ceb10a7b960fac83d968beOUT 0x7482e1efb0913209a1f144eb950c5981074c03fd0.01 BNB0.00366604
0x0fe3988f59764acfffacc6404ae158f7a27e1c4c8fc78fb1fbc8f3117800a4070x7ffd8c62123890842021-09-15 13:48:3110 days 14 hrs ago0xe6ac186748109fe296ceb10a7b960fac83d968beOUT 0x7482e1efb0913209a1f144eb950c5981074c03fd0.01 BNB0.00330184
0xe7dcdd1f22d3b240f17a4a65b06931bb6f2cb0e5430c799cfb92848d75d470c70x7ffd8c62123890782021-09-15 13:48:1310 days 14 hrs ago0xe6ac186748109fe296ceb10a7b960fac83d968beOUT 0x7482e1efb0913209a1f144eb950c5981074c03fd0.01 BNB0.00348426
0xa94ff0cfb29a5ca013ccb3c56a2e7191075ad3bace10bb1319dee835e28990a60x7ffd8c62123890712021-09-15 13:47:5210 days 14 hrs ago0xe6ac186748109fe296ceb10a7b960fac83d968beOUT 0x7482e1efb0913209a1f144eb950c5981074c03fd0.01 BNB0.00362994
0xf3302f06ce11047e6e5d6ea824cca67e7ff3596d9155b143d9817b26df8e94790x7ffd8c62123890522021-09-15 13:46:5510 days 14 hrs ago0xe6ac186748109fe296ceb10a7b960fac83d968beOUT 0x7482e1efb0913209a1f144eb950c5981074c03fd0.01 BNB0.00362962
0xcdb77a8e81ffeba60c56e915a0430b6fcab1b5b83fd6661f8c1500e7264974500x7ffd8c62123890352021-09-15 13:46:0410 days 14 hrs ago0xe6ac186748109fe296ceb10a7b960fac83d968beOUT 0x7482e1efb0913209a1f144eb950c5981074c03fd0.01 BNB0.00366636
[ Download CSV Export 
Latest 6 internal transactions
Parent Txn Hash Block From To Value
0x1629a1b855a4e6c4631fdf9fd5fdeffa7ee611f449d5d394013b5136eec8c348123748072021-09-15 1:54:4011 days 2 hrs ago 0x755ad40a173e6abcfeb5075960dc1eeca8d2b9c40xe6ac186748109fe296ceb10a7b960fac83d968be0.392346902963293262 BNB
0x857cb25b34b7a49678ce0e87eecada6deb0e28a8d035a906c45a0531a9a8d3c5123302362021-09-13 12:14:2012 days 15 hrs ago 0xdb81810af2be50a9c0396d95b2353f31994a0fc90xe6ac186748109fe296ceb10a7b960fac83d968be0.000000161975871036 BNB
0x21b451e42946b6e34f699b59206e768ab991247f3c22010a007a026c74a85543122056732021-09-09 3:46:3417 days 15 mins ago 0x4e97be7ca91fb6bb17ca1d2cd1ec74041c43bd950xe6ac186748109fe296ceb10a7b960fac83d968be0.000002713972366766 BNB
0x6e7c56a97b5a383bbc9d4240dbbd5c0a586e639a4851ba8dc7f8036481302c73121258162021-09-06 9:04:3819 days 18 hrs ago 0x4affba2b7f57135eea1408809ca6ec165f2937b80xe6ac186748109fe296ceb10a7b960fac83d968be0.000000000705495393 BNB
0x107e36802d13d656e1dac7857adeffc3e76f2b321db2635a957c241670728d6a108108702021-07-22 10:04:3865 days 17 hrs ago 0x755ad40a173e6abcfeb5075960dc1eeca8d2b9c40xe6ac186748109fe296ceb10a7b960fac83d968be0.169339404997415053 BNB
0x4d7420177adce1c8bb222e2dd27233687eb43b3f17d3b7b634246763d2a68014106670252021-07-17 10:00:4270 days 18 hrs ago 0x755ad40a173e6abcfeb5075960dc1eeca8d2b9c40xe6ac186748109fe296ceb10a7b960fac83d968be0.032691114724099699 BNB
[ Download CSV Export 
Loading

Contract Name:
0 BNB

Compiler Version
0

Optimization Enabled:
0 BNB

Other Settings:
-NA-
Block Transaction Gas Used Reward
Age Block Fee Address BC Fee Address Voting Power Jailed Incoming
Block Uncle Number Difficulty Gas Used Reward
Loading